Location: *
(40.4000°N, 15.1200°E)
Time: 07:12:07
(UTC+00:00)

CZ-2C R/B - Pass Details

Date: 09 April 2020
Orbit: 785 x 870 km, 98.3° (Epoch: 25 May)

Event Time Altitude Azimuth Distance (km) Brightness Sun altitude
Rises 19:18:07 0° 13° (NNE) 3,284 6.0 -19.6°
Reaches altitude 10° 19:20:26 10° 13° (NNE) 2,353 5.2 -20.0°
Maximum altitude 19:25:38 88° 101° (ESE) 797 2.5 -20.8°
Drops below altitude 10° 19:30:52 10° 194° (SSW) 2,366 4.8 -21.7°
Enters shadow 19:32:01 - 194° (SSW) 2,831 5.3 -21.8°
